Location: Beekmeers
(50.8953°N, 3.6968°E)
Time: 04:07:42
(UTC+00:00)

ISS - Visible Passes

Search period start: 26 April 2025 00:00
Search period end: 06 May 2025 00:00
Orbit: 417 x 420 km, 51.6° (Epoch: 25 April)

Date Brightness Start Highest point End Pass type
(mag) Time Alt. Az. Time Alt. Az. Time Alt. Az.
26 Apr -2.7 02:32:12 28° S 02:32:57 32° SSE 02:36:00 10° E visible
27 Apr -1.9 01:46:08 21° ESE 01:46:08 21° ESE 01:48:06 10° E visible
27 Apr -3.8 03:19:04 14° WSW 03:21:50 76° SSE 03:25:12 10° ENE visible
28 Apr -3.6 02:32:56 35° SW 02:34:06 59° SSE 02:37:26 10° ENE visible
29 Apr -3.1 01:46:45 42° SE 01:46:45 42° SE 01:49:36 10° E visible
29 Apr -3.7 03:19:41 10° W 03:23:04 80° N 03:26:26 10° E visible
30 Apr -1.5 01:00:30 18° E 01:00:30 18° E 01:01:40 10° E visible
30 Apr -3.8 02:33:24 25° WSW 02:35:13 90° N 02:38:35 10° E visible
01 May -3.9 01:47:07 70° SSW 01:47:22 75° SSE 01:50:44 10° ENE visible
01 May -3.6 03:20:50 10° W 03:24:12 77° N 03:27:34 10° E visible
02 May -2.4 01:00:46 32° E 01:00:46 32° E 01:02:49 10° E visible
02 May -3.7 02:33:41 16° W 02:36:16 76° N 02:39:38 10° E visible
03 May -1.1 00:14:23 13° E 00:14:23 13° E 00:14:50 10° E visible
03 May -3.8 01:47:17 42° W 01:48:18 81° N 01:51:41 10° E visible
03 May -3.8 03:21:48 10° WNW 03:25:10 86° S 03:28:32 10° ESE visible
04 May -3.4 01:00:52 60° E 01:00:52 60° E 01:03:42 10° E visible
04 May -3.7 02:33:48 10° W 02:37:11 82° N 02:40:33 10° E visible
05 May -1.7 00:14:25 21° E 00:14:25 21° E 00:15:41 10° ENE visible
05 May -3.7 01:47:19 25° W 01:49:09 77° N 01:52:32 10° E visible
05 May -3.6 03:22:36 10° W 03:25:55 55° SSW 03:29:12 10° SE visible
